sat.trackr.live / text

‹ back to catalog

CENTISPACE-1 GROUP 05 O*

NORAD 69583 · 2026-138B

PAYLOAD ACTIVE UNKNOWN

§ Identity

Operator
Country
PRC
Launch date
2026-06-17
Launch site
JSC
Launch vehicle
Mass (kg)
RCS (m²)

External: N2YO · Heavens-Above · Gunter

§ Orbital elements

Epoch: 2026-09-18T05:23:34.829088Z

Period
102.44 min
Inclination
55.1412°
Eccentricity
0.0005511
Mean motion
14.05766058 rev/d
Perigee alt
869.9 km
Apogee alt
877.9 km
Semi-major
7,252.0 km
B*
-2.1077e-1
RAAN
298.3449°
Arg perigee
237.1922°
Mean anomaly
122.8517°
Rev number
1,318

§ Raw data

CENTISPACE-1 GROUP 05 O*1 69583U 26138B   26261.22470867 -.00332793  00000+0 -21077+0 0  99982 69583  55.1412 298.3449 0005511 237.1922 122.8517 14.05766058 13189

JSON: /api/v1/satellites/69583 · /tle

For live sub-satellite position, see the globe view (requires WebGL).

§ Visibility from observer

Set your observer location to see the next 7 days of passes ≥ 10°. The values pass through the URL so the page stays shareable.

No JS? Fill the form by hand. The geolocation button needs JavaScript.

§ Radio — SatNOGS DB

ModeDescriptionDownlinkUplink
UNKNOWN S-band telemetry 2.249 GHz

1 transmitter · refreshed weekly from db.satnogs.org